Back to catalog

COSMOS 2251 DEB

AliveLEO
NORAD 33828·DEBRIS·🇷🇺 Russia

Launched Jun 16, 1993 from Plesetsk Cosmodrome

Loading…

Next Passes (next 24 hours)

TLE

FreshSource: Space-Track

Epoch: Sep 14, 2026, 06:53 UTC

1 33828U 93036BV  26257.28719579  .00000735  00000-0  21725-3 0  9990
2 33828  74.0439  85.3484 0028211  92.0021  81.9585 14.45022076922924

Track COSMOS 2251 DEB in real time with AllMySat

Download on the App Store